{"data":{"norad_id":55292,"intl_designator":"2023-010Z","name":"STARLINK-5325","alt_names":[],"object_type":"PAYLOAD","status":"ACTIVE","operator":null,"country":"US","launch_date":"2023-01-19","launch_site_code":"AFWTR","launch_vehicle":null,"mission":null,"orbit_class":"UNKNOWN","rcs_meters":null,"size_class":null,"mass_kg":null,"dimensions":null,"purposes":["comms"],"wikipedia_slug":null,"has_3d_model":false,"image_url":null,"decayed_at":null,"tle_current":{"epoch":"2026-09-20T09:14:23.060832Z","epoch_age_seconds":103376,"freshness":"FRESH","line1":"1 55292U 23010Z   26263.38498913 -.00000004  00000+0  74896-5 0  9996","line2":"2 55292  69.9983 253.5165 0003182 271.6220  88.4574 14.98329131202438","mean_motion":14.98329131,"eccentricity":0.0003182,"inclination_deg":69.9983,"raan_deg":253.5165,"arg_perigee_deg":271.622,"mean_anomaly_deg":88.4574,"bstar":7.4896e-6,"rev_number":20243,"period_min":96.107054865771,"perigee_km":569.84702602353,"apogee_km":574.27013048953,"semimajor_km":6950.1955782565,"source":"CELESTRAK","updated_at":"2026-09-21T09:00:33.169699Z"}}}